Flag for U.S.A. Weather past 2 weeks in Fort Wayne, Indiana, U.S.A.

Now
23 °F

Partly sunny.


Feels Like: 16 °F
Forecast: 16 / 26 °F
Wind: 6 mph from West

Location: Fort Wayne International Airport

Current Time: Mar 1, 2015 at 7:06:06 PM

Latest Report: Mar 1, 2015 at 5:54 PM


Visibility: 8 mi

Pressure: 30.30 "Hg

Humidity: 81%

Dew point: 18 °F

Location of Fort WayneLocation

Historic Weather in Fort Wayne — Graph

°F

Fort Wayne temperature yesterday

Maximum temperature yesterday: 20 °F (at 1:54 PM)
Minimum temperature yesterday: 0 °F (at 3:54 AM)
Average temperature yesterday: 11 °F

Past Weeks' High & Low Weather Summary

 TemperatureHumidityPressure
High29 °F (Feb 22, 10:54 AM)92% (Feb 21, 7:54 AM)30.80 "Hg (Feb 21, 7:54 AM)
Low-6 °F (Feb 23, 5:54 AM)38% (Feb 15, 12:54 PM)29.78 "Hg (Feb 24, 3:54 PM)
Average11 °F70%30.27 "Hg
* Reported Feb 14 5:03 PM — Mar 1 5:54 PM, Fort Wayne, Weather by CustomWeather, © 2015

Note: Actual official high and low records may vary slightly from our data, if they occured in-between our weather recording intervals... More about our weather records

Advertising

Fort Wayne weather history for previous 24 hours

 ConditionsComfort  
Time TempWeatherWind HumidityBarometerVisibility
5:54 PM
Sun, Mar 1
23 °FPartly sunny.6 mph81%30.30 "Hg8 mi
4:54 PM26 °FMostly cloudy.7 mph77%30.30 "Hg9 mi
3:54 PM27 °FOvercast.No wind78%30.32 "Hg6 mi
2:54 PM24 °FIce fog.No wind88%30.31 "Hg4 mi
1:54 PM23 °FSnow. Ice fog.No wind88%30.33 "Hg1 mi
12:54 PM23 °FLight snow. Ice fog.No wind85%30.37 "Hg2 mi
11:54 AM22 °FLight snow. Ice fog.No wind85%30.39 "Hg1 mi
10:54 AM20 °FLight snow. Ice fog.No wind89%30.40 "Hg1 mi
10:04 AM19 °FLight snow. Ice fog.No wind92%30.37 "Hg1 mi
9:54 AM19 °FLight snow. Ice fog.No wind88%30.41 "Hg1 mi
8:54 AM18 °FLight snow. Ice fog.3 mph88%30.42 "Hg1 mi
7:54 AM17 °FLight snow. Ice fog.3 mph92%30.43 "Hg1 mi
6:54 AM17 °FLight snow. Ice fog.5 mph88%30.43 "Hg1 mi
5:54 AM17 °FLight snow. Ice fog.5 mph88%30.43 "Hg2 mi
4:54 AM17 °FLight snow. Ice fog.3 mph88%30.43 "Hg1 mi
3:54 AM17 °FLight snow. Ice fog.5 mph88%30.44 "Hg1 mi
2:54 AM17 °FLight snow. Ice fog.5 mph88%30.47 "Hg1 mi
1:54 AM17 °FLight snow. Ice fog.6 mph88%30.49 "Hg1 mi
12:54 AM17 °FLight snow. Ice fog.6 mph88%30.50 "Hg1 mi
11:54 PM
Sat, Feb 28
17 °FLight snow. Ice fog.7 mph88%30.54 "Hg1 mi
10:54 PM16 °FLight snow. Ice fog.6 mph87%30.58 "Hg1 mi
9:54 PM16 °FLight snow. Ice fog.6 mph84%30.61 "Hg1 mi
8:54 PM18 °FOvercast.7 mph59%30.61 "Hg10 mi
7:54 PM18 °FMostly cloudy.10 mph59%30.62 "Hg10 mi
Weather by CustomWeather, © 2015

See weather overviewHow to use our weather pages